www.pogodaiklimat.ru

Погода и климат >> Архив погоды >> Канада >> Онтарио >> Су-Сент-Мари


ПОГОДА в Су-Сент-Мари

  • Прогноз погоды в Су-Сент-Мари
  • Монитор погоды в Су-Сент-Мари

АРХИВ ПОГОДЫ в Су-Сент-Мари

Время (UTC), дата Ветер
(напр.,м/с)
 
Видим.   Явления Облачность Т
(С)
Тd
(С)
f
(%)
Тe
(С)
Тes
(С)
Комфортность P
(гПа)
Po
(гПа)
Тmin
(С)
Tmax
(С)
R
(мм)
R24
(мм)
S
(см)
18 15.03 З 11 30 км 10/10 300 м
[]
-3.2 -6.4 79 -13 -13 1004.2 980.6 -3.2 +2.6 0.0 57
21 15.03 З 10 24 км 10/10 300 м
[]
-4.1 -7.1 80 -14 -14 1006.6 982.9
00 16.03 СЗ 8 1600 м 6/6 200 м
[]
-4.3 -5.6 91 -13 -13 1010.1 986.3 -4.7 -0.7 0.8 58
03 16.03 СЗ 9 4800 м 10/10 200 м
[]
-4.2 -5.5 91 -13 -13 1012.8 988.9
06 16.03 СЗ 7 4000 м 9/9 200 м
[]
-5.2 -7.1 86 -13 -13 1014.4 990.4 -5.2 +2.6 2 211
09 16.03 СЗ 5 8000 м 9/9 1000 м
[]
-6.2 -8.2 86 -14 -14 1016.3 992.2
12 16.03 СЗ 4 6000 м 9/9 300 м
[]
-7.4 -10.0 82 -14 -14 1019.4 995.2 -7.5 +2.6 0.6 60
15 16.03 СЗ 5 4800 м 10/10 300 м
[]
-6.6 -9.3 81 -14 -14 1021.9 997.6
18 16.03 СЗ 9 12 км 10/10 300 м
[]
-6.5 -9.4 80 -16 -16 1023.2 998.9 -7.6 -5.3 0.2 60
21 16.03 СЗ 9 12 км 10/10 300 м
[]
-7.6 -10.9 77 -17 -17 1024.4 1000.0
00 17.03 СЗ 8 24 км 9/9 300 м
[]
-6.7 -9.6 80 -16 -16 1024.8 1000.4 -7.8 -5.9 0.2 60
03 17.03 З 2 24 км 9/9 300 м
[]
-7.2 -9.5 84 -11 -11 1024.8 1000.4
06 17.03 ЮЗ 3 30 км 4/4 600 м
[]
-9.5 -11.1 88 -15 -15 1023.9 999.5 -11.3 -5.3 0.0 211
09 17.03 С 1 19 км 10/10 300 м
[]
-8.2 -10.4 84 -9 -9 1023.6 999.2
12 17.03 С 1 24 км 8/8 300 м
[]
-12.5 -13.7 91 -13 -13 1024.4 999.9 -12.8 -5.3 0.0 60
15 17.03 С 1 30 км 5/0
[]
-5.4 -8.7 78 -6 -0 1024.5 1000.1
18 17.03 СЗ 4 40 км 5/5 600 м
[]
-0.5 -8.9 53 -5 -1 1023.9 999.6 -14.1 -0.5
21 17.03 СЗ 5 40 км 1/1 1000 м
[]
0.0 -8.9 51 -5 -4 1023.1 998.9
00 18.03 СЗ 3 40 км 3/3 1000 м
[]
-3.5 -9.6 63 -8 -8 1024.4 999.9 -14.1 +0.6
03 18.03 С 1 40 км ясно -9.4 -11.1 87 -10 -10 1024.6 1000.2
06 18.03 З 3 30 км 1/1 600 м
[]
-7.7 -8.5 94 -13 -13 1025.1 1000.8 -14.1 +0.6 22
09 18.03 З 3 40 км 3/3 600 м
[]
-8.2 -9.6 90 -14 -14 1025.2 1000.9
12 18.03 В 2 19 км 9/9 1500 м
[]
-9.4 -10.5 92 -13 -13 1026.0 1001.6 -13.2 +0.6 0.0 58
15 18.03 СВ 1 12 км 10/10 600 м
[]
-5.3 -6.5 91 -8 -8 1026.3 1001.8
18 18.03 СВ 4 19 км 10/10 600 м
[]
-1.4 -5.7 72 -7 -7 1025.6 1001.3 -13.2 -0.8 0.2 57
21 18.03 З 5 30 км 6/6 600 м
[]
-0.9 -5.2 73 -7 -6 1025.5 1001.2
00 19.03 З 3 30 км 5/5 300 м
[]
-5.6 -8.2 82 -11 -11 1026.5 1002.0 -13.2 -0.8 0.2 57
03 19.03 СВ 1 30 км 1/0
[]
-9.4 -10.3 93 -12 -12 1027.1 1002.6
06 19.03 СВ 1 12 км 4/4 300 м
[]
-12.6 -13.8 91 -15 -15 1027.2 1002.7 -13.9 -0.8
09 19.03 В 1 12 км 6/6 100 м
[]
-16.6 -18.9 82 -19 -19 1027.3 1002.7
12 19.03 В 3 8000 м 9/9 <50 м
[]
-10.3 -11.5 91 -16 -16 1027.6 1003.1 -16.7 -0.8 56
15 19.03 В 3 24 км 8/8 100 м
[]
-5.2 -6.1 93 -11 -10 1027.7 1003.2
18 19.03 СВ 3 24 км 8/8 1000 м
[]
+2.2 -2.9 69 -2 0 1026.2 1001.9 -16.7 +2.5
21 19.03 ЮЗ 5 24 км 5/5 1000 м
[]
+5.2 -4.9 48 +1 +3 1023.8 999.5
00 20.03 ЮЗ 4 30 км 8/8 1500 м
[]
+2.7 -4.5 59 -2 -2 1022.5 998.3 -16.7 +6.1
03 20.03 Ю 2 24 км 5/0
[]
+0.2 -4.0 73 -3 -3 1020.5 996.4
06 20.03 Ю 3 24 км 10/0
[]
+1.7 -4.1 65 -2 -2 1018.3 994.5 -16.7 +6.1 20
09 20.03 ЮВ 2 24 км 10/0 2000 м
[]
+1.7 -3.3 69 -1 -1 1016.0 992.3
12 20.03 В 2 16 км 10/10 1500 м
[]
-0.2 -2.7 83 -4 -4 1014.9 991.2 -0.5 +6.1 53
15 20.03 ЮВ 2 4800 м 10/10 300 м
[]
+1.7 +0.1 89 -1 -1 1014.5 990.8
18 20.03 ЮЗ 2 16 км 10/10 600 м
[]
+4.3 +0.2 75 +2 +2 1014.0 990.4 -0.5 +4.3 0.0 52
21 20.03 ЮЗ 1 8000 м 10/10 300 м
[]
+3.5 +1.5 87 +2 +2 1014.1 990.4
00 21.03 С 1 12 км 10/10 300 м
[]
+1.5 +1.0 96 +1 +1 1014.9 991.1 -0.5 +4.6 0.2 49
03 21.03 штиль 0 12 км 10/10 300 м
[]
+1.2 +0.6 96 -0 -0 1015.8 992.0
06 21.03 штиль 0 6000 м 10/10 200 м
[]
+0.5 +0.2 98 -1 -1 1015.2 991.5 -0.5 +4.6 0.2 49
09 21.03 СЗ 2 3200 м 10/10 200 м
[]
+0.7 +0.5 99 -2 -2 1014.6 990.9
12 21.03 З 2 400 м н/о +0.5 +0.3 99 -3 -3 1014.4 990.7 +0.3 +4.6 0.2 46
15 21.03 СЗ 3 4000 м 9/9 50 м
[]
+0.7 +0.5 99 -4 -3 1013.8 990.1
18 21.03 З 4 12 км 10/10 100 м
[]
+1.4 +0.5 94 -4 -4 1011.7 988.0 +0.2 +1.5 0.0 44
21 21.03 З 3 24 км 10/10 200 м
[]
+2.0 +0.1 87 -2 -2 1009.1 985.5
00 22.03 ЮЗ 6 24 км 10/10 300 м
[]
+2.0 -0.7 82 -4 -4 1008.5 984.9 +0.2 +3.5 0.0 44
03 22.03 С 2 24 км 9/9 200 м
[]
+0.9 -0.5 90 -2 -2 1009.2 985.6
06 22.03 СЗ 5 24 км 9/9 200 м
[]
+0.5 -0.9 90 -5 -5 1009.6 986.0 +0.2 +3.5 0.0 10
09 22.03 СЗ 6 16 км 8/8 200 м
[]
-0.2 -1.6 90 -7 -7 1010.8 987.1
12 22.03 С 7 24 км 6/6 300 м
[]
-3.3 -7.6 72 -11 -11 1014.7 990.9 -3.3 +3.5 0.0 42
15 22.03 СЗ 8 24 км 9/9 300 м
[]
-4.0 -9.3 67 -12 -12 1018.7 994.7

 

Местоположение метеостанции Су-Сент-Мари (Онтарио, Канада): широта 46.48 долгота -84.50 высота над уровнем моря 192 м.

В архиве по умолчанию представлена погода в Су-Сент-Мари за последнюю неделю. Архивные данные за месяц целиком и за предыдущие месяцы, начиная с января 2011 года, Вы можете получить, выбрав интересующий диапазон дат из раскрывающегося списка и нажав кнопку "Ввод!".


*Определитесь, кто Вы:
робот инопланетянин человек

Внимание! Время в таблицах - всемирное. Для получения местного времени необходимо прибавить поправку, которая равна -5 ч.

Смотрите также архив погоды в соседних городах и на ближайших метеорологических станциях:

Погода в Монреаль Ривер (Онтарио, Канада) (87 км)
Погода на Острове Карибу (Онтарио, Канада) (138 км)
Погода на Лейк Супериор (Онтарио, Канада) (139 км)
Погода в Смитерсе (Британская Колумбия, Канада) (149 км)
Погода на Острове Грейт Дак (Онтарио, Канада) (152 км)
Погода в Гор-Бее (Онтарио, Канада) (164 км)
Погода в Вава (Онтарио, Канада) (167 км)
Погода в Шапло (Онтарио, Канада) (173 км)
Погода в Килларни (Онтарио, Канада) (239 км)
Погода на Острове Ков (Онтарио, Канада) (250 км)

Пояснения к столбцам:

Ветер - указаны скорость ветра в м/с - средняя за 10 мин, порывы в срок и между сроками (в фигурных скобках) и направление, откуда дует ветер: С - северный, СВ - северо-восточный, В - восточный, ЮВ - юго-восточный, Ю - южный, ЮЗ - юго-западный, З - западный, СЗ - северо-западный.
Видимость - горизонтальная дальность видимости в метрах или километрах. При видимости от 1 до 10 км при отсутствии осадков обычно наблюдается дымка, при ухудшении видимости до 1 км и менее - туман. В сухую погоду видимость может ухудшаться дымом, пылью или мглою.
Явления - указаны атмосферные явления, наблюдавшиеся в срок или в последний час перед сроком; фигурными скобками обозначены явления, наблюдавшиеся между сроками (за 1-3 часа до срока); квадратными скобками обозначены град или гололедные отложения с указанием их диаметра в мм.
Облачность - указаны через наклонную черту общая и нижняя облачность в баллах и высота нижней границы облаков в метрах; квадратными скобками обозначены формы облаков: Ci - перистые, Cs - перисто-слоистые, Cc - перисто-кучевые, Ac - высококучевые, As - высокослоистые, Sc - слоисто-кучевые, Ns - слоисто-дождевые, Cu - кучевые, Cb - кучево-дождевые. Подробнее классификацию облаков см. в Атласе облаков (PDF).
T - Температура воздуха - температура, измеренная на высоте 2 м над землей.
Td - Температура точки росы - температура, при понижении до которой содержащийся в воздухе водяной пар достигнет насыщения.
f - Относительная влажность воздуха - влажноcть воздуха, измеренная на высоте 2 м над землей.
Te - Эффективная температура - температура, которую ощущает одетый по сезону человек в тени. Характеристика душности погоды. При расчете учитывается влияние влажности воздуха и скорости ветра на теплоощущения человека.
Tes - Эффективная температура на солнце - температура, которую ощущает человек, с поправкой на солнечный нагрев. Характеристика знойности погоды. Зависит от высоты солнца над горизонтом, облачности и скорости ветра. Ночью, в пасмурную погоду, а также при ветре 12 м/с и более поправка равна нулю.
P - Атмосферное давление - приведенное к уровню моря атмосферное давление.
Po - Атмосферное давление - измеренное на уровне метеостанции атмосферное давление.
Tmin - Минимальная температура - минимум температуры воздуха на высоте 2 м над землей.
Tmax - Максимальная температура - максимум температуры воздуха на высоте 2 м над землей.
R - Количество осадков - Количество выпавших осадков за период времени, мм. При наведении курсора мыши на число - период времени, за который выпало указанное количество осадков.
R24 - Количество осадков - Количество выпавших осадков за 24 часа, мм.
S - Снежный покров - Высота снежного покрова, см. При наведении курсора мыши на число - состояние снежного покрова и степень покрытия местности в баллах.